Satellite-Ground Cal/Val Site Overpasses Predictions

Prediction of Satellite NPP Overpassing Cal/Val Site: Antarctic Dome C

Ground Cal/Val Site Location: Latitude: -75.10, Longitude: 123.35; Satellite-Ground Site NADIR distance within 100 km.

Table of predicted overpasses for the next 14.0 days since TLE Epoch: 1/19/2017
Interval Starting Time Ending Time Minimum Distance Time Minimum Distance (km)
1 01/19/2017 14:42:45 01/19/2017 14:43:11 01/19/2017 14:42:58 49.59
2 01/20/2017 07:44:27 01/20/2017 07:44:47 01/20/2017 07:44:37 73.61
3 01/21/2017 07:25:33 01/21/2017 07:26:00 01/21/2017 07:25:47 34.29
4 01/23/2017 15:07:59 01/23/2017 15:08:05 01/23/2017 15:08:02 97.37
5 01/24/2017 14:48:58 01/24/2017 14:49:27 01/24/2017 14:49:12 14.36
6 01/26/2017 07:31:46 01/26/2017 07:32:16 01/26/2017 07:32:01 2.40
7 01/29/2017 14:55:12 01/29/2017 14:55:40 01/29/2017 14:55:26 22.28
8 01/30/2017 14:36:29 01/30/2017 14:36:44 01/30/2017 14:36:37 84.86
9 01/31/2017 07:38:01 01/31/2017 07:38:28 01/31/2017 07:38:14 38.16


NCC Satellite Cal/Val Overpasses Prediction Service
